User: anonymous   Login
Location: Sungai Bunut
(2.6333°N, 113.7333°E)
Time: 03:35:42
(UTC+00:00)
Language:

USA 276 - Orbit

View from above orbital plane
View from above orbital plane
View from above satellite
View from above satellite

Ground track
Ground track

The orbit data is extracted from the following two-line orbital elements,

1 42689U 17022A   22020.74934994 0.00017000  00000-0  17026-3 0    06
2 42689  49.9970 312.4584 0003226 177.1957 182.8041 15.64811495    04
Epoch (UTC): 20 January 2022 17:59:03
Eccentricity: 0.0003226
inclination: 49.9970°
perigee height: 371 km
apogee height: 376 km
right ascension of ascending node: 312.4584°
argument of perigee: 177.1957°
revolutions per day: 15.64811495
mean anomaly at epoch: 182.8041°
orbit number at epoch: 0

The dashed part of the orbit path shows where the satellite is in the earth's shadow,  

DLR